Location: Kapla
(46.2483°N, 15.0094°E)
Time: 13:08:53
(UTC+00:00)

Nadezhda 3 Rocket - Pass Details

Date: 26 June 2021
Orbit: 958 x 998 km, 82.9° (Epoch: 26 July)

Event Time Altitude Azimuth Distance (km) Brightness Sun altitude
Rises 19:44:30 0° 252° (WSW) 3,639 7.4 -7.2°
Reaches altitude 10° 19:49:15 10° 285° (WNW) 2,706 7.4 -7.8°
Maximum altitude 19:51:07 11° 303° (WNW) 2,612 7.7 -8.0°
Drops below altitude 10° 19:53:00 10° 321° (NW) 2,717 8.1 -8.2°
Sets 19:57:50 0° 354° (N) 3,681 8.0 -8.8°
